NORTHEAST SUFFOLK  -  Freeze Warning Freeze Warning     Frost Advisory Frost Advisory     Special Weather Statement Special Weather Statement        NORTHWEST SUFFOLK  -  Freeze Warning Freeze Warning     Frost Advisory Frost Advisory     Special Weather Statement Special Weather Statement        SOUTHEAST SUFFOLK  -  Freeze Warning Freeze Warning     Frost Advisory Frost Advisory     Special Weather Statement Special Weather Statement        SOUTHWEST SUFFOLK  -  Freeze Warning Freeze Warning     Frost Advisory Frost Advisory     Special Weather Statement Special Weather Statement        NORTHERN NASSAU  -  Frost Advisory Frost Advisory     Special Weather Statement Special Weather Statement        SOUTHERN NASSAU  -  Frost Advisory Frost Advisory     Special Weather Statement Special Weather Statement        NORTHERN QUEENS  -  Special Weather Statement Special Weather Statement        SOUTHERN QUEENS  -  Special Weather Statement Special Weather Statement      

Active alerts

Northwest Suffolk
  Details for Northwest Suffolk Freeze Warning  +2 additional alerts
Southwest Suffolk
  Details for Southwest Suffolk Freeze Warning  +2 additional alerts
Northeast Suffolk
  Details for Northeast Suffolk Freeze Warning  +2 additional alerts
Southeast Suffolk
  Details for Southeast Suffolk Freeze Warning  +2 additional alerts
Northern Nassau
  Details for Northern Nassau Frost Advisory  +1 additional alert
Southern Nassau
  Details for Southern Nassau Frost Advisory  +1 additional alert
Northern Queens
  Details for Northern Queens Special Weather Statement
Southern Queens
  Details for Southern Queens Special Weather Statement


WXM80 ListenWXM80 Stop

You find our weather info also at:

UK Metoffice

WeatherCloud

Weather Underground

Northeastern Weather Network

AWEKAS

Citizen Weather Observer Program (CWOP)

HAMweather, WeatherForYou, PWS Weather


Weather Underground History page Text

Daily Summary for June 4, 2017 Units:  English    Metric   Both
« Previous Day
Next Day »
Daily Weekly Monthly Yearly Custom
  High: Low: Average:
Temperature: 73.3 °F 51.2 °F 60.6 °F
Dew Point: 57.9 °F 46.8 °F 53.3 °F
Humidity: 93 % 54 % 78 %
Wind Speed: 3.9 mph 0.0 mph 0.4 mph
Wind Gust: 8.1 mph - -
Wind:- - South
Pressure: 29.99 in 29.80 in -
Precipitation: 0.06 in    
Historical Graphs
 
 
Tabular Data for June 4, 2017
Time Temperature Dew Point Pressure Wind Wind Speed Wind Gust Humidity Rainfall Rate (Hourly)
00:01 60.4 °F 49.8 °F 29.95 in WNW 0.1 mph 1.2 mph 68 % 0.00 in
00:03 60.3 °F 49.7 °F 29.95 in Calm     68 % 0.00 in
00:08 60.1 °F 49.1 °F 29.95 in Calm     67 % 0.00 in
00:13 59.9 °F 49.3 °F 29.95 in WNW 0.2 mph 2.3 mph 68 % 0.00 in
00:18 59.7 °F 49.1 °F 29.95 in Calm     68 % 0.00 in
00:23 59.5 °F 49.3 °F 29.95 in Calm     69 % 0.00 in
00:28 59.4 °F 49.6 °F 29.95 in Calm     70 % 0.00 in
00:33 59.2 °F 49.8 °F 29.95 in Calm     71 % 0.00 in
00:38 59.0 °F 49.6 °F 29.95 in Calm     71 % 0.00 in
00:43 58.9 °F 49.5 °F 29.95 in WNW 1.2 mph 2.0 mph 71 % 0.00 in
00:48 58.6 °F 49.2 °F 29.95 in Calm   2.3 mph 71 % 0.00 in
00:53 58.4 °F 49.0 °F 29.95 in WNW 0.1 mph 1.2 mph 71 % 0.00 in
00:58 58.3 °F 48.9 °F 29.95 in Calm     71 % 0.00 in
01:03 58.2 °F 49.6 °F 29.96 in Calm     73 % 0.00 in
01:09 58.0 °F 49.8 °F 29.96 in WNW 0.2 mph 1.2 mph 74 % 0.00 in
01:13 57.8 °F 49.2 °F 29.96 in Calm     73 % 0.00 in
01:18 57.7 °F 49.5 °F 29.96 in Calm   1.2 mph 74 % 0.00 in
01:23 57.5 °F 49.6 °F 29.96 in WNW 1.2 mph 2.0 mph 75 % 0.00 in
01:28 57.3 °F 49.8 °F 29.97 in WNW 0.3 mph 1.2 mph 76 % 0.00 in
01:34 57.2 °F 49.3 °F 29.97 in Calm   1.0 mph 75 % 0.00 in
01:39 57.1 °F 49.6 °F 29.97 in West 1.2 mph 3.5 mph 76 % 0.00 in
01:44 56.9 °F 49.8 °F 29.97 in West 1.3 mph 2.3 mph 77 % 0.00 in
01:49 56.8 °F 49.7 °F 29.97 in West 1.5 mph 2.3 mph 77 % 0.00 in
01:54 56.8 °F 50.0 °F 29.97 in West 1.4 mph 2.3 mph 78 % 0.00 in
01:59 56.8 °F 50.0 °F 29.98 in WSW 0.8 mph 2.3 mph 78 % 0.00 in
02:04 56.8 °F 49.7 °F 29.98 in WSW 0.1 mph 1.2 mph 77 % 0.00 in
02:07 56.8 °F 49.7 °F 29.97 in WSW 0.2 mph 1.2 mph 77 % 0.00 in
02:12 56.7 °F 49.6 °F 29.97 in Calm     77 % 0.00 in
02:17 56.7 °F 49.6 °F 29.98 in WSW 0.6 mph 2.3 mph 77 % 0.00 in
02:22 56.7 °F 49.6 °F 29.98 in Calm     77 % 0.00 in
02:27 56.6 °F 49.5 °F 29.98 in Calm     77 % 0.00 in
02:30 56.6 °F 49.5 °F 29.98 in Calm     77 % 0.00 in
02:35 56.4 °F 49.3 °F 29.98 in Calm     77 % 0.00 in
02:41 56.3 °F 49.2 °F 29.97 in Calm     77 % 0.00 in
02:46 56.2 °F 49.4 °F 29.98 in Calm     78 % 0.00 in
02:51 56.0 °F 49.6 °F 29.98 in Calm     79 % 0.00 in
02:56 55.8 °F 49.4 °F 29.98 in Calm   2.0 mph 79 % 0.00 in
03:01 55.6 °F 49.5 °F 29.98 in Calm     80 % 0.00 in
03:06 55.4 °F 49.3 °F 29.98 in Calm     80 % 0.00 in
03:11 55.2 °F 49.1 °F 29.98 in Calm     80 % 0.00 in
03:16 55.0 °F 49.3 °F 29.98 in Calm     81 % 0.00 in
03:21 54.8 °F 49.1 °F 29.98 in Calm     81 % 0.00 in
03:26 54.6 °F 48.9 °F 29.98 in WSW 0.1 mph 1.2 mph 81 % 0.00 in
03:31 54.5 °F 48.8 °F 29.98 in Calm     81 % 0.00 in
03:36 54.4 °F 48.7 °F 29.97 in Calm     81 % 0.00 in
03:41 54.2 °F 48.8 °F 29.97 in Calm     82 % 0.00 in
03:46 54.0 °F 48.6 °F 29.97 in Calm     82 % 0.00 in
03:51 53.9 °F 48.5 °F 29.97 in WSW 0.6 mph 2.3 mph 82 % 0.00 in
03:56 53.7 °F 48.7 °F 29.97 in Calm     83 % 0.00 in
04:01 53.6 °F 48.6 °F 29.97 in Calm   1.2 mph 83 % 0.00 in
04:06 53.6 °F 48.6 °F 29.97 in Calm     83 % 0.00 in
04:11 53.5 °F 48.5 °F 29.98 in Calm     83 % 0.00 in
04:16 53.5 °F 48.5 °F 29.98 in Calm     83 % 0.00 in
04:21 53.5 °F 48.5 °F 29.98 in Calm     83 % 0.00 in
04:26 53.6 °F 48.6 °F 29.98 in Calm   1.2 mph 83 % 0.00 in
04:31 53.5 °F 48.5 °F 29.98 in Calm     83 % 0.00 in
04:36 53.5 °F 48.5 °F 29.98 in Calm     83 % 0.00 in
04:41 53.5 °F 48.5 °F 29.98 in Calm     83 % 0.00 in
04:46 53.4 °F 48.4 °F 29.98 in Calm     83 % 0.00 in
04:51 53.3 °F 48.3 °F 29.98 in Calm     83 % 0.00 in
04:56 53.2 °F 48.5 °F 29.98 in Calm     84 % 0.00 in
05:01 53.1 °F 48.1 °F 29.97 in Calm     83 % 0.00 in
05:06 52.9 °F 48.2 °F 29.97 in Calm     84 % 0.00 in
05:12 52.8 °F 48.1 °F 29.98 in Calm     84 % 0.00 in
05:17 52.6 °F 47.9 °F 29.98 in Calm   1.2 mph 84 % 0.00 in
05:22 52.5 °F 47.8 °F 29.97 in Calm     84 % 0.00 in
05:27 52.3 °F 47.6 °F 29.98 in Calm     84 % 0.00 in
05:32 52.1 °F 47.4 °F 29.97 in Calm     84 % 0.00 in
05:37 51.9 °F 47.5 °F 29.98 in Calm     85 % 0.00 in
05:42 51.8 °F 47.4 °F 29.98 in Calm     85 % 0.00 in
05:47 51.7 °F 47.3 °F 29.98 in Calm     85 % 0.00 in
05:52 51.5 °F 46.8 °F 29.98 in WSW 0.1 mph 1.2 mph 84 % 0.00 in
05:57 51.4 °F 47.0 °F 29.98 in Calm     85 % 0.00 in
06:02 51.3 °F 46.9 °F 29.98 in Calm     85 % 0.00 in
06:07 51.2 °F 46.8 °F 29.98 in Calm     85 % 0.00 in
06:12 51.2 °F 47.5 °F 29.99 in Calm     87 % 0.00 in
06:18 51.2 °F 47.5 °F 29.99 in Calm     87 % 0.00 in
06:23 51.3 °F 47.6 °F 29.99 in Calm   1.2 mph 87 % 0.00 in
06:28 51.4 °F 48.0 °F 29.99 in Calm     88 % 0.00 in
06:33 51.7 °F 48.6 °F 29.99 in Calm     89 % 0.00 in
06:38 52.0 °F 49.2 °F 29.99 in Calm     90 % 0.00 in
06:43 52.3 °F 49.5 °F 29.99 in Calm     90 % 0.00 in
06:48 52.9 °F 49.7 °F 29.99 in Calm     89 % 0.00 in
06:53 53.5 °F 50.3 °F 29.99 in Calm     89 % 0.00 in
06:58 54.1 °F 51.2 °F 29.99 in Calm     90 % 0.00 in
07:03 54.7 °F 51.5 °F 29.99 in Calm     89 % 0.00 in
07:08 55.4 °F 51.6 °F 29.99 in Calm     87 % 0.00 in
07:13 56.2 °F 52.1 °F 29.98 in Calm     86 % 0.00 in
07:18 57.1 °F 52.6 °F 29.98 in Calm     85 % 0.00 in
07:23 58.0 °F 53.5 °F 29.99 in Calm     85 % 0.00 in
07:28 58.7 °F 53.5 °F 29.99 in Calm   1.2 mph 83 % 0.00 in
07:33 59.4 °F 51.1 °F 29.99 in Calm   1.2 mph 74 % 0.00 in
07:38 59.9 °F 51.6 °F 29.99 in Calm     74 % 0.00 in
07:43 60.3 °F 51.6 °F 29.98 in Calm     73 % 0.00 in
07:48 60.6 °F 52.3 °F 29.98 in Calm     74 % 0.00 in
07:53 60.9 °F 52.2 °F 29.98 in Calm     73 % 0.00 in
07:59 61.3 °F 52.2 °F 29.98 in Calm     72 % 0.00 in
08:03 61.6 °F 53.2 °F 29.99 in NNW 0.6 mph 1.2 mph 74 % 0.00 in
08:08 61.9 °F 52.8 °F 29.99 in NNW 0.1 mph 1.2 mph 72 % 0.00 in
08:14 62.3 °F 53.9 °F 29.99 in NW 0.6 mph 3.0 mph 74 % 0.00 in
08:19 62.6 °F 53.1 °F 29.99 in WNW 0.5 mph 3.5 mph 71 % 0.00 in
08:24 62.9 °F 53.7 °F 29.99 in WNW 1.2 mph 2.3 mph 72 % 0.00 in
08:29 63.2 °F 53.6 °F 29.99 in WNW 0.2 mph 2.3 mph 71 % 0.00 in
08:34 63.4 °F 53.8 °F 29.99 in WNW 0.4 mph 1.2 mph 71 % 0.00 in
08:39 63.6 °F 52.8 °F 29.99 in SW 1.9 mph 4.6 mph 68 % 0.00 in
08:44 63.7 °F 50.4 °F 29.99 in WSW 0.9 mph 4.6 mph 62 % 0.00 in
08:49 63.9 °F 50.6 °F 29.99 in WSW 0.3 mph 1.2 mph 62 % 0.00 in
08:54 64.1 °F 51.2 °F 29.99 in WNW 1.5 mph 3.5 mph 63 % 0.00 in
08:59 64.2 °F 51.8 °F 29.99 in WNW 0.7 mph 2.3 mph 64 % 0.00 in
09:04 64.3 °F 51.9 °F 29.99 in Calm   1.0 mph 64 % 0.00 in
09:09 64.3 °F 50.1 °F 29.99 in NW 1.0 mph 2.0 mph 60 % 0.00 in
09:14 64.5 °F 51.2 °F 29.99 in Calm     62 % 0.00 in
09:19 64.5 °F 52.9 °F 29.99 in NW 0.1 mph 1.2 mph 66 % 0.00 in
09:24 64.7 °F 55.1 °F 29.99 in NW 0.6 mph 3.0 mph 71 % 0.00 in
09:29 64.8 °F 55.2 °F 29.99 in North 1.1 mph 3.5 mph 71 % 0.00 in
09:34 65.0 °F 55.0 °F 29.99 in NW 0.4 mph 3.5 mph 70 % 0.00 in
09:39 65.4 °F 54.6 °F 29.99 in NW 0.4 mph 3.5 mph 68 % 0.00 in
09:44 65.9 °F 53.8 °F 29.98 in NW 0.3 mph 2.0 mph 65 % 0.00 in
09:49 66.8 °F 55.9 °F 29.98 in NE 1.5 mph 4.0 mph 68 % 0.00 in
09:54 67.7 °F 56.8 °F 29.98 in NNW 0.5 mph 3.5 mph 68 % 0.00 in
10:00 68.6 °F 55.9 °F 29.98 in Calm   2.3 mph 64 % 0.00 in
10:05 69.6 °F 56.9 °F 29.98 in NW 1.5 mph 3.5 mph 64 % 0.00 in
10:10 70.8 °F 56.7 °F 29.98 in NNE 0.9 mph 3.5 mph 61 % 0.00 in
10:15 71.6 °F 56.5 °F 29.98 in North 1.4 mph 3.5 mph 59 % 0.00 in
10:20 72.4 °F 57.7 °F 29.98 in North 1.5 mph 3.5 mph 60 % 0.00 in
10:21 72.6 °F 57.9 °F 29.98 in NNE 2.9 mph 3.5 mph 60 % 0.00 in
10:26 73.1 °F 57.4 °F 29.98 in North 2.8 mph 3.5 mph 58 % 0.00 in
10:31 73.3 °F 57.1 °F 29.98 in NNE 2.8 mph 4.0 mph 57 % 0.00 in
10:36 73.3 °F 57.6 °F 29.98 in NE 0.5 mph 2.3 mph 58 % 0.00 in
10:41 73.1 °F 56.0 °F 29.98 in NNE 2.5 mph 4.0 mph 55 % 0.00 in
10:46 72.8 °F 56.7 °F 29.98 in NNE 2.9 mph 4.0 mph 57 % 0.00 in
10:51 72.3 °F 57.6 °F 29.98 in NNE 1.8 mph 3.5 mph 60 % 0.00 in
10:56 72.1 °F 57.0 °F 29.98 in NNE 1.2 mph 3.5 mph 59 % 0.00 in
11:01 71.8 °F 56.2 °F 29.98 in NE 0.8 mph 2.3 mph 58 % 0.00 in
11:06 71.5 °F 56.9 °F 29.98 in NE 1.3 mph 1.3 mph 60 % 0.00 in
11:11 71.2 °F 56.1 °F 29.97 in ENE 2.2 mph 3.5 mph 59 % 0.00 in
11:16 71.3 °F 56.2 °F 29.97 in NE 1.2 mph 2.3 mph 59 % 0.00 in
11:21 71.0 °F 56.4 °F 29.97 in ENE 1.0 mph 3.0 mph 60 % 0.00 in
11:26 70.5 °F 55.9 °F 29.97 in ENE 0.5 mph 2.0 mph 60 % 0.00 in
11:31 69.9 °F 55.8 °F 29.96 in NE 0.5 mph 3.5 mph 61 % 0.00 in
11:36 69.2 °F 55.6 °F 29.96 in ENE 1.2 mph 2.3 mph 62 % 0.00 in
11:41 68.5 °F 55.8 °F 29.96 in ENE 0.1 mph 3.5 mph 64 % 0.00 in
11:47 68.4 °F 55.7 °F 29.96 in ENE 0.6 mph   64 % 0.00 in
11:52 68.3 °F 55.2 °F 29.96 in Calm   1.2 mph 63 % 0.00 in
11:57 68.5 °F 56.7 °F 29.95 in ENE 0.7 mph 2.3 mph 66 % 0.00 in
12:02 68.5 °F 54.1 °F 29.96 in Calm   1.2 mph 60 % 0.00 in
12:07 68.7 °F 54.7 °F 29.95 in ENE 0.5 mph 1.2 mph 61 % 0.00 in
12:12 68.9 °F 53.0 °F 29.94 in Calm     57 % 0.00 in
12:17 69.0 °F 52.6 °F 29.94 in Calm   1.2 mph 56 % 0.00 in
12:22 69.3 °F 53.4 °F 29.94 in East 0.7 mph 2.3 mph 57 % 0.00 in
12:27 69.5 °F 55.0 °F 29.94 in East 1.0 mph 2.3 mph 60 % 0.00 in
12:32 69.8 °F 53.4 °F 29.93 in NE 0.8 mph 2.3 mph 56 % 0.00 in
12:37 69.9 °F 52.5 °F 29.93 in NE 1.5 mph 2.3 mph 54 % 0.00 in
12:42 69.9 °F 53.0 °F 29.93 in ENE 0.2 mph 3.5 mph 55 % 0.00 in
12:47 69.9 °F 53.0 °F 29.93 in NNE 1.3 mph 2.3 mph 55 % 0.00 in
12:52 69.8 °F 52.9 °F 29.93 in NNE 0.3 mph 1.2 mph 55 % 0.00 in
12:57 69.6 °F 53.2 °F 29.92 in NNE 0.3 mph 2.0 mph 56 % 0.00 in
13:02 69.3 °F 52.9 °F 29.92 in NNE 0.5 mph 1.2 mph 56 % 0.00 in
13:07 69.2 °F 52.3 °F 29.92 in Calm   1.2 mph 55 % 0.00 in
13:13 69.0 °F 53.6 °F 29.92 in Calm     58 % 0.00 in
13:18 68.7 °F 52.4 °F 29.92 in Calm     56 % 0.00 in
13:23 68.5 °F 52.2 °F 29.92 in Calm     56 % 0.00 in
13:28 68.3 °F 52.9 °F 29.92 in WNW 1.1 mph 3.0 mph 58 % 0.00 in
13:33 68.1 °F 52.3 °F 29.92 in SW 0.7 mph 2.3 mph 57 % 0.00 in
13:38 68.0 °F 52.7 °F 29.92 in SSW 0.6 mph 2.3 mph 58 % 0.00 in
13:43 67.9 °F 53.0 °F 29.92 in SSW 0.1 mph 1.2 mph 59 % 0.00 in
13:53 67.7 °F 52.9 °F 29.93 in SW 1.1 mph 2.3 mph 59 % 0.00 in
13:58 67.6 °F 52.8 °F 29.94 in WSW 0.6 mph 2.3 mph 59 % 0.00 in
14:03 67.5 °F 52.7 °F 29.94 in WSW 1.3 mph 3.5 mph 59 % 0.00 in
14:08 67.4 °F 52.6 °F 29.94 in WSW 1.1 mph 3.0 mph 59 % 0.00 in
14:13 67.4 °F 53.5 °F 29.94 in SW 3.9 mph 8.1 mph 61 % 0.00 in
14:18 67.3 °F 53.4 °F 29.94 in SW 1.3 mph 2.3 mph 61 % 0.00 in
14:23 67.2 °F 54.2 °F 29.94 in WSW 3.8 mph 5.8 mph 63 % 0.00 in
14:28 67.1 °F 54.5 °F 29.94 in SW 3.2 mph 5.8 mph 64 % 0.00 in
14:33 66.9 °F 53.9 °F 29.95 in WSW 2.2 mph 8.1 mph 63 % 0.00 in
14:38 66.7 °F 55.0 °F 29.95 in SSW 2.7 mph 6.0 mph 66 % 0.00 in
14:43 66.4 °F 55.5 °F 29.95 in WSW 1.6 mph 3.5 mph 68 % 0.00 in
14:48 65.9 °F 55.8 °F 29.95 in WSW 2.7 mph 5.8 mph 70 % 0.00 in
14:53 65.5 °F 56.2 °F 29.95 in Calm     72 % 0.01 in
14:58 65.1 °F 56.6 °F 29.95 in West 2.4 mph 3.5 mph 74 % 0.01 in
15:03 64.7 °F 56.6 °F 29.94 in SW 0.1 mph 2.3 mph 75 % 0.01 in
15:08 64.3 °F 56.2 °F 29.94 in Calm   1.2 mph 75 % 0.02 in
15:13 63.9 °F 56.2 °F 29.94 in SW 0.1 mph 1.2 mph 76 % 0.03 in
15:18 63.6 °F 56.6 °F 29.94 in Calm     78 % 0.03 in
15:23 63.2 °F 56.6 °F 29.94 in SW 0.3 mph 1.2 mph 79 % 0.03 in
15:28 62.9 °F 56.6 °F 29.94 in SW 0.3 mph   80 % 0.04 in
15:33 62.5 °F 56.6 °F 29.93 in Calm   2.3 mph 81 % 0.04 in
15:38 62.1 °F 56.9 °F 29.92 in Calm     83 % 0.04 in
15:43 61.9 °F 56.7 °F 29.92 in Calm     83 % 0.04 in
15:48 61.7 °F 56.8 °F 29.92 in SW 0.2 mph 2.3 mph 84 % 0.04 in
15:54 61.4 °F 56.5 °F 29.91 in SW 0.2 mph 1.2 mph 84 % 0.04 in
15:59 61.0 °F 56.1 °F 29.91 in SE 0.4 mph 3.5 mph 84 % 0.04 in
16:04 60.9 °F 56.4 °F 29.90 in Calm   1.2 mph 85 % 0.04 in
16:09 60.6 °F 56.1 °F 29.91 in SE 0.1 mph 3.5 mph 85 % 0.03 in
16:14 60.5 °F 56.3 °F 29.91 in Calm   1.0 mph 86 % 0.02 in
16:19 60.5 °F 56.3 °F 29.90 in Calm     86 % 0.03 in
16:24 60.5 °F 56.6 °F 29.90 in Calm     87 % 0.03 in
16:29 60.4 °F 56.5 °F 29.89 in SSE 2.5 mph 4.0 mph 87 % 0.02 in
16:34 60.2 °F 56.0 °F 29.88 in SE 0.2 mph 2.3 mph 86 % 0.02 in
16:35 60.1 °F 55.9 °F 29.88 in SSE 0.8 mph 2.3 mph 86 % 0.02 in
16:40 60.0 °F 55.8 °F 29.88 in SE 1.4 mph 3.5 mph 86 % 0.02 in
16:45 59.9 °F 55.7 °F 29.88 in SE 0.2 mph 2.3 mph 86 % 0.02 in
16:50 59.9 °F 56.0 °F 29.87 in SE 0.8 mph 2.3 mph 87 % 0.02 in
16:55 59.8 °F 55.6 °F 29.87 in SE 0.4 mph 3.5 mph 86 % 0.01 in
17:00 59.7 °F 55.5 °F 29.87 in SE 0.4 mph 3.5 mph 86 % 0.01 in
17:05 59.7 °F 55.5 °F 29.87 in SE 0.6 mph 3.0 mph 86 % 0.01 in
17:10 59.7 °F 55.5 °F 29.86 in SE 2.2 mph 4.6 mph 86 % 0.01 in
17:15 59.7 °F 55.2 °F 29.86 in SE 1.7 mph 3.5 mph 85 % 0.00 in
17:20 59.8 °F 55.6 °F 29.86 in SE 0.1 mph 1.2 mph 86 % 0.00 in
17:25 59.8 °F 55.6 °F 29.86 in Calm   1.0 mph 86 % 0.00 in
17:30 59.9 °F 56.0 °F 29.86 in SE 0.6 mph 3.5 mph 87 % 0.00 in
17:35 59.9 °F 56.0 °F 29.86 in Calm     87 % 0.00 in
17:40 59.9 °F 56.0 °F 29.86 in SE 0.2 mph 1.2 mph 87 % 0.00 in
17:45 59.9 °F 56.0 °F 29.86 in Calm     87 % 0.00 in
17:50 59.9 °F 56.0 °F 29.86 in SE 0.3 mph 2.3 mph 87 % 0.00 in
17:55 59.9 °F 56.0 °F 29.86 in Calm     87 % 0.00 in
18:00 59.9 °F 56.0 °F 29.86 in Calm     87 % 0.00 in
18:05 59.9 °F 56.0 °F 29.85 in Calm     87 % 0.00 in
18:10 60.0 °F 56.4 °F 29.85 in Calm     88 % 0.00 in
18:15 60.0 °F 56.4 °F 29.85 in Calm     88 % 0.00 in
18:20 59.9 °F 56.3 °F 29.85 in Calm     88 % 0.00 in
18:25 59.9 °F 56.3 °F 29.85 in Calm     88 % 0.00 in
18:31 60.0 °F 56.7 °F 29.85 in Calm     89 % 0.00 in
18:41 59.9 °F 56.6 °F 29.85 in SE 0.1 mph 1.2 mph 89 % 0.00 in
18:46 59.8 °F 56.6 °F 29.85 in NE 0.7 mph 1.2 mph 89 % 0.00 in
18:51 59.7 °F 56.5 °F 29.85 in Calm     89 % 0.00 in
18:57 59.7 °F 56.8 °F 29.85 in NE 0.1 mph 1.2 mph 90 % 0.00 in
19:02 59.6 °F 56.7 °F 29.85 in Calm     90 % 0.00 in
19:07 59.5 °F 56.3 °F 29.86 in Calm   1.2 mph 89 % 0.00 in
19:09 59.5 °F 56.3 °F 29.86 in Calm     89 % 0.00 in
19:14 59.5 °F 56.3 °F 29.86 in Calm     89 % 0.00 in
19:19 59.5 °F 56.3 °F 29.86 in Calm     89 % 0.00 in
19:24 59.5 °F 56.3 °F 29.86 in Calm     89 % 0.00 in
19:29 59.5 °F 56.3 °F 29.86 in Calm     89 % 0.00 in
19:34 59.5 °F 56.3 °F 29.87 in NE 0.1 mph 2.3 mph 89 % 0.00 in
19:39 59.5 °F 56.3 °F 29.86 in Calm     89 % 0.00 in
19:44 59.5 °F 56.6 °F 29.87 in NE 0.1 mph 3.5 mph 90 % 0.00 in
19:49 59.4 °F 56.5 °F 29.86 in ENE 0.1 mph 1.2 mph 90 % 0.00 in
19:54 59.3 °F 56.7 °F 29.86 in Calm     91 % 0.00 in
19:59 59.3 °F 56.7 °F 29.86 in ENE 0.2 mph 1.2 mph 91 % 0.00 in
20:04 59.3 °F 56.4 °F 29.86 in ENE 0.1 mph 1.2 mph 90 % 0.00 in
20:09 59.2 °F 56.6 °F 29.86 in Calm     91 % 0.00 in
20:14 59.1 °F 56.2 °F 29.86 in ENE 0.1 mph 1.2 mph 90 % 0.00 in
20:20 59.0 °F 56.1 °F 29.85 in Calm     90 % 0.00 in
20:25 59.0 °F 56.4 °F 29.86 in Calm     91 % 0.00 in
20:30 59.0 °F 56.4 °F 29.85 in Calm     91 % 0.00 in
20:35 58.9 °F 56.3 °F 29.85 in Calm     91 % 0.00 in
20:40 58.9 °F 56.3 °F 29.85 in Calm   1.2 mph 91 % 0.00 in
20:45 58.8 °F 56.2 °F 29.84 in SE 0.1 mph 1.2 mph 91 % 0.00 in
20:50 58.8 °F 56.2 °F 29.85 in Calm   1.2 mph 91 % 0.00 in
21:00 58.7 °F 56.4 °F 29.85 in Calm     92 % 0.00 in
21:05 58.6 °F 56.3 °F 29.85 in Calm     92 % 0.00 in
21:10 58.6 °F 56.3 °F 29.85 in ESE 1.0 mph 2.3 mph 92 % 0.00 in
21:15 58.5 °F 56.2 °F 29.85 in Calm     92 % 0.00 in
21:20 58.5 °F 56.2 °F 29.85 in Calm     92 % 0.00 in
21:25 58.5 °F 56.2 °F 29.85 in Calm     92 % 0.00 in
21:30 58.4 °F 56.1 °F 29.85 in Calm     92 % 0.00 in
21:35 58.4 °F 56.1 °F 29.85 in Calm     92 % 0.00 in
21:40 58.4 °F 56.1 °F 29.85 in Calm     92 % 0.00 in
21:45 58.4 °F 56.1 °F 29.85 in Calm     92 % 0.00 in
21:51 58.3 °F 56.0 °F 29.85 in Calm     92 % 0.00 in
21:56 58.3 °F 56.0 °F 29.85 in Calm     92 % 0.00 in
22:01 58.2 °F 55.9 °F 29.84 in Calm     92 % 0.00 in
22:06 58.2 °F 55.9 °F 29.84 in Calm     92 % 0.00 in
22:11 58.1 °F 55.8 °F 29.84 in Calm     92 % 0.00 in
22:16 58.0 °F 55.7 °F 29.84 in Calm     92 % 0.00 in
22:21 58.0 °F 55.7 °F 29.84 in Calm     92 % 0.00 in
22:26 58.0 °F 55.7 °F 29.84 in Calm     92 % 0.00 in
22:31 57.8 °F 55.5 °F 29.84 in Calm     92 % 0.00 in
22:36 57.8 °F 55.5 °F 29.84 in Calm     92 % 0.00 in
22:41 57.8 °F 55.5 °F 29.84 in Calm     92 % 0.00 in
22:46 57.8 °F 55.5 °F 29.84 in Calm     92 % 0.00 in
22:51 57.8 °F 55.8 °F 29.83 in Calm     93 % 0.00 in
22:56 57.7 °F 55.7 °F 29.83 in Calm     93 % 0.00 in
23:01 57.8 °F 55.8 °F 29.83 in Calm     93 % 0.00 in
23:06 57.8 °F 55.8 °F 29.82 in Calm     93 % 0.00 in
23:11 57.8 °F 55.8 °F 29.82 in Calm     93 % 0.00 in
23:16 57.8 °F 55.8 °F 29.81 in Calm     93 % 0.00 in
23:21 57.8 °F 55.8 °F 29.80 in ESE 0.1 mph 2.3 mph 93 % 0.00 in
23:26 57.8 °F 55.8 °F 29.80 in Calm   1.2 mph 93 % 0.00 in
23:32 57.8 °F 55.8 °F 29.80 in ESE 0.2 mph 1.0 mph 93 % 0.00 in
23:37 57.7 °F 55.7 °F 29.81 in East 0.8 mph 2.3 mph 93 % 0.00 in
23:42 57.7 °F 55.7 °F 29.81 in Calm   3.5 mph 93 % 0.00 in
23:47 57.6 °F 55.6 °F 29.81 in Calm   1.2 mph 93 % 0.00 in
23:52 57.6 °F 55.6 °F 29.80 in Calm     93 % 0.00 in
23:57 57.6 °F 55.6 °F 29.80 in Calm   1.0 mph 93 % 0.00 in
Crab Meadow Weather
Compliments of Weather Underground - 3 mb

Script developed by  Jim McMurry - jmcmurry@mwt.net Adapted for the template by  Wim van der Kuil - Leuven-Template.eu

Weather Terms: Flood Watch - Conditions are favorable for flash flooding in and close to the watch area. These watches are issued by the Weather Forecast Office in Upton and are usually for the first 12 to 24 hours of a forecast.